Flag for Guinea-Bissau Weather past 2 weeks in Bissau, Guinea-Bissau

Now
79 °F

Partly cloudy.


Feels Like: 82 °F
Forecast: N/A
Wind: 7 mph from Southwest

Location: Bissau Aeroport

Current Time: Jul 29, 2015 at 10:03:58 PM

Latest Report: Jul 29, 2015 at 8:00 PM


Visibility: N/A

Pressure: 29.92 "Hg

Humidity: 84%

Dew point: 73 °F

Location of BissauLocation

Historic Weather in Bissau — Graph

°F

Bissau temperature yesterday

Maximum temperature yesterday: 81 °F (at 11:00 AM)
Minimum temperature yesterday: 77 °F (at 7:00 AM)
Average temperature yesterday: 78 °F

Past Weeks' High & Low Weather Summary

 TemperatureHumidityPressure
High90 °F (Jul 16, 3:00 PM)100% (Jul 15, 7:00 AM)29.98 "Hg (Jul 15, 7:00 AM)
Low75 °F (Jul 19, 7:00 AM)59% (Jul 16, 5:00 PM)29.80 "Hg (Jul 16, 4:00 PM)
Average82 °F82%29.90 "Hg
* Reported Jul 14 8:00 PM — Jul 29 8:00 PM, Bissau, Weather by CustomWeather, © 2015

Note: Actual official high and low records may vary slightly from our data, if they occured in-between our weather recording intervals... More about our weather records

Advertising

Bissau weather history for previous 24 hours

 ConditionsComfort  
Time TempWeatherWind HumidityBarometerVisibility
8:00 PM
Wed, Jul 29
79 °FPartly cloudy.7 mph84%29.92 "HgN/A
7:00 PM81 °FBroken clouds.10 mph84%29.89 "HgN/A
6:00 PM79 °FBroken clouds.12 mph89%29.89 "HgN/A
5:00 PM79 °FBroken clouds.15 mph89%29.89 "HgN/A
4:00 PM79 °FLight rain. Broken clouds.9 mph94%29.89 "Hg5 mi
3:00 PM84 °FLight rain. Scattered clouds.6 mph79%29.92 "Hg5 mi
2:00 PM84 °FPartly sunny.12 mph74%29.92 "HgN/A
1:00 PM84 °FPartly sunny.10 mph74%29.95 "HgN/A
12:00 PM84 °FPartly sunny.10 mph74%29.98 "HgN/A
11:00 AM82 °FScattered clouds.14 mph74%29.98 "HgN/A
10:00 AM82 °FScattered clouds.15 mph84%29.95 "HgN/A
9:00 AM79 °FLight rain. Broken clouds.10 mph94%29.95 "Hg5 mi
8:00 AM79 °FBroken clouds.6 mph89%29.92 "Hg6 mi
7:00 AM77 °FScattered clouds.6 mph89%29.89 "Hg5 mi
6:00 AM77 °FPassing clouds.7 mph94%29.89 "Hg5 mi
10:00 PM
Tue, Jul 28
77 °FPassing clouds.6 mph94%29.95 "Hg5 mi
Weather by CustomWeather, © 2015

See weather overviewHow to use our weather pages